Index of /20260507/WXO-DD/model_gdps/15km/00/081
Name Last modified Size Description
Parent Directory -
20260507T00Z_MSC_GDPS_AbsoluteVorticity_IsbL-0200_LatLon0.15_PT081H.grib2 2026-05-07 04:24 1.5M
20260507T00Z_MSC_GDPS_AbsoluteVorticity_IsbL-0250_LatLon0.15_PT081H.grib2 2026-05-07 04:24 1.3M
20260507T00Z_MSC_GDPS_AbsoluteVorticity_IsbL-0500_LatLon0.15_PT081H.grib2 2026-05-07 04:24 1.2M
20260507T00Z_MSC_GDPS_AbsoluteVorticity_IsbL-0700_LatLon0.15_PT081H.grib2 2026-05-07 04:24 1.3M
20260507T00Z_MSC_GDPS_AbsoluteVorticity_IsbL-0850_LatLon0.15_PT081H.grib2 2026-05-07 04:24 1.6M
20260507T00Z_MSC_GDPS_AirTemp_AGL-120m_LatLon0.15_PT081H.grib2 2026-05-07 04:24 903K
20260507T00Z_MSC_GDPS_AirTemp_AGL-2m_LatLon0.15_PT081H.grib2 2026-05-07 04:24 1.0M
20260507T00Z_MSC_GDPS_AirTemp_AGL-40m_LatLon0.15_PT081H.grib2 2026-05-07 04:24 801K
20260507T00Z_MSC_GDPS_AirTemp_AGL-80m_LatLon0.15_PT081H.grib2 2026-05-07 04:24 792K
20260507T00Z_MSC_GDPS_AirTemp_IsbL-0001_LatLon0.15_PT081H.grib2 2026-05-07 04:24 668K
20260507T00Z_MSC_GDPS_AirTemp_IsbL-0005_LatLon0.15_PT081H.grib2 2026-05-07 04:24 535K
20260507T00Z_MSC_GDPS_AirTemp_IsbL-0010_LatLon0.15_PT081H.grib2 2026-05-07 04:24 701K
20260507T00Z_MSC_GDPS_AirTemp_IsbL-0020_LatLon0.15_PT081H.grib2 2026-05-07 04:24 791K
20260507T00Z_MSC_GDPS_AirTemp_IsbL-0030_LatLon0.15_PT081H.grib2 2026-05-07 04:24 840K
20260507T00Z_MSC_GDPS_AirTemp_IsbL-0050_LatLon0.15_PT081H.grib2 2026-05-07 04:24 888K
20260507T00Z_MSC_GDPS_AirTemp_IsbL-0100_LatLon0.15_PT081H.grib2 2026-05-07 04:24 964K
20260507T00Z_MSC_GDPS_AirTemp_IsbL-0150_LatLon0.15_PT081H.grib2 2026-05-07 04:24 1.0M
20260507T00Z_MSC_GDPS_AirTemp_IsbL-0175_LatLon0.15_PT081H.grib2 2026-05-07 04:24 968K
20260507T00Z_MSC_GDPS_AirTemp_IsbL-0200_LatLon0.15_PT081H.grib2 2026-05-07 04:24 973K
20260507T00Z_MSC_GDPS_AirTemp_IsbL-0225_LatLon0.15_PT081H.grib2 2026-05-07 04:24 968K
20260507T00Z_MSC_GDPS_AirTemp_IsbL-0250_LatLon0.15_PT081H.grib2 2026-05-07 04:24 1.0M
20260507T00Z_MSC_GDPS_AirTemp_IsbL-0275_LatLon0.15_PT081H.grib2 2026-05-07 04:24 1.0M
20260507T00Z_MSC_GDPS_AirTemp_IsbL-0300_LatLon0.15_PT081H.grib2 2026-05-07 04:24 1.0M
20260507T00Z_MSC_GDPS_AirTemp_IsbL-0350_LatLon0.15_PT081H.grib2 2026-05-07 04:24 935K
20260507T00Z_MSC_GDPS_AirTemp_IsbL-0400_LatLon0.15_PT081H.grib2 2026-05-07 04:24 948K
20260507T00Z_MSC_GDPS_AirTemp_IsbL-0450_LatLon0.15_PT081H.grib2 2026-05-07 04:24 973K
20260507T00Z_MSC_GDPS_AirTemp_IsbL-0500_LatLon0.15_PT081H.grib2 2026-05-07 04:24 1.0M
20260507T00Z_MSC_GDPS_AirTemp_IsbL-0550_LatLon0.15_PT081H.grib2 2026-05-07 04:24 806K
20260507T00Z_MSC_GDPS_AirTemp_IsbL-0600_LatLon0.15_PT081H.grib2 2026-05-07 04:24 893K
20260507T00Z_MSC_GDPS_AirTemp_IsbL-0650_LatLon0.15_PT081H.grib2 2026-05-07 04:24 923K
20260507T00Z_MSC_GDPS_AirTemp_IsbL-0700_LatLon0.15_PT081H.grib2 2026-05-07 04:24 955K
20260507T00Z_MSC_GDPS_AirTemp_IsbL-0750_LatLon0.15_PT081H.grib2 2026-05-07 04:24 1.0M
20260507T00Z_MSC_GDPS_AirTemp_IsbL-0800_LatLon0.15_PT081H.grib2 2026-05-07 04:24 1.1M
20260507T00Z_MSC_GDPS_AirTemp_IsbL-0850_LatLon0.15_PT081H.grib2 2026-05-07 04:24 1.1M
20260507T00Z_MSC_GDPS_AirTemp_IsbL-0875_LatLon0.15_PT081H.grib2 2026-05-07 04:24 1.2M
20260507T00Z_MSC_GDPS_AirTemp_IsbL-0900_LatLon0.15_PT081H.grib2 2026-05-07 04:24 1.1M
20260507T00Z_MSC_GDPS_AirTemp_IsbL-0925_LatLon0.15_PT081H.grib2 2026-05-07 04:24 1.1M
20260507T00Z_MSC_GDPS_AirTemp_IsbL-0950_LatLon0.15_PT081H.grib2 2026-05-07 04:24 1.1M
20260507T00Z_MSC_GDPS_AirTemp_IsbL-0970_LatLon0.15_PT081H.grib2 2026-05-07 04:24 1.1M
20260507T00Z_MSC_GDPS_AirTemp_IsbL-0985_LatLon0.15_PT081H.grib2 2026-05-07 04:24 1.1M
20260507T00Z_MSC_GDPS_AirTemp_IsbL-1000_LatLon0.15_PT081H.grib2 2026-05-07 04:24 1.1M
20260507T00Z_MSC_GDPS_AirTemp_IsbL-1015_LatLon0.15_PT081H.grib2 2026-05-07 04:24 1.1M
20260507T00Z_MSC_GDPS_Albedo_Sfc_LatLon0.15_PT081H.grib2 2026-05-07 04:24 243K
20260507T00Z_MSC_GDPS_CAPE_Sfc_LatLon0.15_PT081H.grib2 2026-05-07 04:24 3.8M
20260507T00Z_MSC_GDPS_CIN_Sfc_LatLon0.15_PT081H.grib2 2026-05-07 04:24 2.8M
20260507T00Z_MSC_GDPS_CloudWater_EAtm_LatLon0.15_PT081H.grib2 2026-05-07 04:24 539K
20260507T00Z_MSC_GDPS_ConvectivePrecip-Accum_Sfc_LatLon0.15_PT081H.grib2 2026-05-07 04:24 3.2M
20260507T00Z_MSC_GDPS_DewPointDepression_AGL-2m_LatLon0.15_PT081H.grib2 2026-05-07 04:24 754K
20260507T00Z_MSC_GDPS_DewPointDepression_IsbL-0010_LatLon0.15_PT081H.grib2 2026-05-07 04:24 94K
20260507T00Z_MSC_GDPS_DewPointDepression_IsbL-0020_LatLon0.15_PT081H.grib2 2026-05-07 04:24 92K
20260507T00Z_MSC_GDPS_DewPointDepression_IsbL-0030_LatLon0.15_PT081H.grib2 2026-05-07 04:24 104K
20260507T00Z_MSC_GDPS_DewPointDepression_IsbL-0050_LatLon0.15_PT081H.grib2 2026-05-07 04:24 386K
20260507T00Z_MSC_GDPS_DewPointDepression_IsbL-0100_LatLon0.15_PT081H.grib2 2026-05-07 04:24 397K
20260507T00Z_MSC_GDPS_DewPointDepression_IsbL-0150_LatLon0.15_PT081H.grib2 2026-05-07 04:24 508K
20260507T00Z_MSC_GDPS_DewPointDepression_IsbL-0175_LatLon0.15_PT081H.grib2 2026-05-07 04:24 604K
20260507T00Z_MSC_GDPS_DewPointDepression_IsbL-0200_LatLon0.15_PT081H.grib2 2026-05-07 04:24 697K
20260507T00Z_MSC_GDPS_DewPointDepression_IsbL-0225_LatLon0.15_PT081H.grib2 2026-05-07 04:24 782K
20260507T00Z_MSC_GDPS_DewPointDepression_IsbL-0250_LatLon0.15_PT081H.grib2 2026-05-07 04:24 880K
20260507T00Z_MSC_GDPS_DewPointDepression_IsbL-0275_LatLon0.15_PT081H.grib2 2026-05-07 04:24 905K
20260507T00Z_MSC_GDPS_DewPointDepression_IsbL-0300_LatLon0.15_PT081H.grib2 2026-05-07 04:24 941K
20260507T00Z_MSC_GDPS_DewPointDepression_IsbL-0350_LatLon0.15_PT081H.grib2 2026-05-07 04:24 964K
20260507T00Z_MSC_GDPS_DewPointDepression_IsbL-0400_LatLon0.15_PT081H.grib2 2026-05-07 04:24 1.0M
20260507T00Z_MSC_GDPS_DewPointDepression_IsbL-0450_LatLon0.15_PT081H.grib2 2026-05-07 04:24 1.0M
20260507T00Z_MSC_GDPS_DewPointDepression_IsbL-0500_LatLon0.15_PT081H.grib2 2026-05-07 04:24 1.0M
20260507T00Z_MSC_GDPS_DewPointDepression_IsbL-0550_LatLon0.15_PT081H.grib2 2026-05-07 04:24 1.0M
20260507T00Z_MSC_GDPS_DewPointDepression_IsbL-0600_LatLon0.15_PT081H.grib2 2026-05-07 04:24 1.0M
20260507T00Z_MSC_GDPS_DewPointDepression_IsbL-0650_LatLon0.15_PT081H.grib2 2026-05-07 04:24 1.1M
20260507T00Z_MSC_GDPS_DewPointDepression_IsbL-0700_LatLon0.15_PT081H.grib2 2026-05-07 04:24 1.1M
20260507T00Z_MSC_GDPS_DewPointDepression_IsbL-0750_LatLon0.15_PT081H.grib2 2026-05-07 04:24 1.1M
20260507T00Z_MSC_GDPS_DewPointDepression_IsbL-0800_LatLon0.15_PT081H.grib2 2026-05-07 04:24 1.2M
20260507T00Z_MSC_GDPS_DewPointDepression_IsbL-0850_LatLon0.15_PT081H.grib2 2026-05-07 04:24 1.1M
20260507T00Z_MSC_GDPS_DewPointDepression_IsbL-0875_LatLon0.15_PT081H.grib2 2026-05-07 04:24 1.1M
20260507T00Z_MSC_GDPS_DewPointDepression_IsbL-0900_LatLon0.15_PT081H.grib2 2026-05-07 04:24 1.0M
20260507T00Z_MSC_GDPS_DewPointDepression_IsbL-0925_LatLon0.15_PT081H.grib2 2026-05-07 04:24 1.0M
20260507T00Z_MSC_GDPS_DewPointDepression_IsbL-0950_LatLon0.15_PT081H.grib2 2026-05-07 04:24 1.0M
20260507T00Z_MSC_GDPS_DewPointDepression_IsbL-0970_LatLon0.15_PT081H.grib2 2026-05-07 04:24 972K
20260507T00Z_MSC_GDPS_DewPointDepression_IsbL-0985_LatLon0.15_PT081H.grib2 2026-05-07 04:24 963K
20260507T00Z_MSC_GDPS_DewPointDepression_IsbL-1000_LatLon0.15_PT081H.grib2 2026-05-07 04:24 951K
20260507T00Z_MSC_GDPS_DewPointDepression_IsbL-1015_LatLon0.15_PT081H.grib2 2026-05-07 04:24 895K
20260507T00Z_MSC_GDPS_DewPoint_AGL-2m_LatLon0.15_PT081H.grib2 2026-05-07 04:24 604K
20260507T00Z_MSC_GDPS_DownwardLongwaveRadiationFlux-Accum_Sfc_LatLon0.15_PT081H.grib2 2026-05-07 04:24 689K
20260507T00Z_MSC_GDPS_DownwardShortwaveRadiationFlux-Accum_NTAtm_LatLon0.15_PT081H.grib2 2026-05-07 04:24 255K
20260507T00Z_MSC_GDPS_DownwardShortwaveRadiationFlux-Accum_Sfc_LatLon0.15_PT081H.grib2 2026-05-07 04:24 894K
20260507T00Z_MSC_GDPS_FreezingRain-Accum1h_Sfc_LatLon0.15_PT081H.grib2 2026-05-07 04:24 55K
20260507T00Z_MSC_GDPS_FreezingRain-Accum3h_Sfc_LatLon0.15_PT081H.grib2 2026-05-07 04:24 66K
20260507T00Z_MSC_GDPS_FreezingRain-Accum_Sfc_LatLon0.15_PT081H.grib2 2026-05-07 04:24 242K
20260507T00Z_MSC_GDPS_GeopotentialHeight_IsbL-0001_LatLon0.15_PT081H.grib2 2026-05-07 04:24 431K
20260507T00Z_MSC_GDPS_GeopotentialHeight_IsbL-0005_LatLon0.15_PT081H.grib2 2026-05-07 04:24 483K
20260507T00Z_MSC_GDPS_GeopotentialHeight_IsbL-0010_LatLon0.15_PT081H.grib2 2026-05-07 04:24 472K
20260507T00Z_MSC_GDPS_GeopotentialHeight_IsbL-0020_LatLon0.15_PT081H.grib2 2026-05-07 04:24 409K
20260507T00Z_MSC_GDPS_GeopotentialHeight_IsbL-0030_LatLon0.15_PT081H.grib2 2026-05-07 04:24 415K
20260507T00Z_MSC_GDPS_GeopotentialHeight_IsbL-0050_LatLon0.15_PT081H.grib2 2026-05-07 04:24 573K
20260507T00Z_MSC_GDPS_GeopotentialHeight_IsbL-0100_LatLon0.15_PT081H.grib2 2026-05-07 04:24 612K
20260507T00Z_MSC_GDPS_GeopotentialHeight_IsbL-0150_LatLon0.15_PT081H.grib2 2026-05-07 04:24 628K
20260507T00Z_MSC_GDPS_GeopotentialHeight_IsbL-0175_LatLon0.15_PT081H.grib2 2026-05-07 04:24 632K
20260507T00Z_MSC_GDPS_GeopotentialHeight_IsbL-0200_LatLon0.15_PT081H.grib2 2026-05-07 04:24 635K
20260507T00Z_MSC_GDPS_GeopotentialHeight_IsbL-0225_LatLon0.15_PT081H.grib2 2026-05-07 04:24 637K
20260507T00Z_MSC_GDPS_GeopotentialHeight_IsbL-0250_LatLon0.15_PT081H.grib2 2026-05-07 04:24 638K
20260507T00Z_MSC_GDPS_GeopotentialHeight_IsbL-0275_LatLon0.15_PT081H.grib2 2026-05-07 04:24 642K
20260507T00Z_MSC_GDPS_GeopotentialHeight_IsbL-0300_LatLon0.15_PT081H.grib2 2026-05-07 04:24 636K
20260507T00Z_MSC_GDPS_GeopotentialHeight_IsbL-0350_LatLon0.15_PT081H.grib2 2026-05-07 04:24 631K
20260507T00Z_MSC_GDPS_GeopotentialHeight_IsbL-0400_LatLon0.15_PT081H.grib2 2026-05-07 04:24 622K
20260507T00Z_MSC_GDPS_GeopotentialHeight_IsbL-0450_LatLon0.15_PT081H.grib2 2026-05-07 04:24 611K
20260507T00Z_MSC_GDPS_GeopotentialHeight_IsbL-0500_LatLon0.15_PT081H.grib2 2026-05-07 04:24 602K
20260507T00Z_MSC_GDPS_GeopotentialHeight_IsbL-0550_LatLon0.15_PT081H.grib2 2026-05-07 04:24 525K
20260507T00Z_MSC_GDPS_GeopotentialHeight_IsbL-0600_LatLon0.15_PT081H.grib2 2026-05-07 04:24 524K
20260507T00Z_MSC_GDPS_GeopotentialHeight_IsbL-0650_LatLon0.15_PT081H.grib2 2026-05-07 04:24 523K
20260507T00Z_MSC_GDPS_GeopotentialHeight_IsbL-0700_LatLon0.15_PT081H.grib2 2026-05-07 04:24 688K
20260507T00Z_MSC_GDPS_GeopotentialHeight_IsbL-0750_LatLon0.15_PT081H.grib2 2026-05-07 04:24 699K
20260507T00Z_MSC_GDPS_GeopotentialHeight_IsbL-0800_LatLon0.15_PT081H.grib2 2026-05-07 04:24 712K
20260507T00Z_MSC_GDPS_GeopotentialHeight_IsbL-0850_LatLon0.15_PT081H.grib2 2026-05-07 04:24 719K
20260507T00Z_MSC_GDPS_GeopotentialHeight_IsbL-0875_LatLon0.15_PT081H.grib2 2026-05-07 04:24 723K
20260507T00Z_MSC_GDPS_GeopotentialHeight_IsbL-0900_LatLon0.15_PT081H.grib2 2026-05-07 04:24 731K
20260507T00Z_MSC_GDPS_GeopotentialHeight_IsbL-0925_LatLon0.15_PT081H.grib2 2026-05-07 04:24 738K
20260507T00Z_MSC_GDPS_GeopotentialHeight_IsbL-0950_LatLon0.15_PT081H.grib2 2026-05-07 04:24 742K
20260507T00Z_MSC_GDPS_GeopotentialHeight_IsbL-0970_LatLon0.15_PT081H.grib2 2026-05-07 04:24 758K
20260507T00Z_MSC_GDPS_GeopotentialHeight_IsbL-0985_LatLon0.15_PT081H.grib2 2026-05-07 04:24 773K
20260507T00Z_MSC_GDPS_GeopotentialHeight_IsbL-1000_LatLon0.15_PT081H.grib2 2026-05-07 04:24 793K
20260507T00Z_MSC_GDPS_GeopotentialHeight_IsbL-1015_LatLon0.15_PT081H.grib2 2026-05-07 04:24 810K
20260507T00Z_MSC_GDPS_Humidex_Sfc_LatLon0.15_PT081H.grib2 2026-05-07 04:24 5.3M
20260507T00Z_MSC_GDPS_IcePellets-Accum1h_Sfc_LatLon0.15_PT081H.grib2 2026-05-07 04:24 20K
20260507T00Z_MSC_GDPS_IcePellets-Accum3h_Sfc_LatLon0.15_PT081H.grib2 2026-05-07 04:24 22K
20260507T00Z_MSC_GDPS_IcePellets-Accum_Sfc_LatLon0.15_PT081H.grib2 2026-05-07 04:24 111K
20260507T00Z_MSC_GDPS_KIndex_Sfc_LatLon0.15_PT081H.grib2 2026-05-07 04:24 6.5M
20260507T00Z_MSC_GDPS_LatentHeatNetFlux_Sfc_LatLon0.15_PT081H.grib2 2026-05-07 04:24 741K
20260507T00Z_MSC_GDPS_LiftedIndex-MU-VT_IsbL-0500_LatLon0.15_PT081H.grib2 2026-05-07 04:24 5.4M
20260507T00Z_MSC_GDPS_NetLongwaveRadiationFlux-Accum_Sfc_LatLon0.15_PT081H.grib2 2026-05-07 04:24 1.0M
20260507T00Z_MSC_GDPS_NetShortwaveRadiationFlux-Accum_Sfc_LatLon0.15_PT081H.grib2 2026-05-07 04:24 878K
20260507T00Z_MSC_GDPS_O3MixingRatio_Sfc_LatLon0.15_PT081H.grib2 2026-05-07 04:55 1.9M
20260507T00Z_MSC_GDPS_O3_EAtm_LatLon0.15_PT081H.grib2 2026-05-07 04:55 2.5M
20260507T00Z_MSC_GDPS_PlanetaryBoundaryLayerHeight_Sfc_LatLon0.15_PT081H.grib2 2026-05-07 04:24 2.5M
20260507T00Z_MSC_GDPS_Precip-Accum1h_Sfc_LatLon0.15_PT081H.grib2 2026-05-07 04:24 3.3M
20260507T00Z_MSC_GDPS_Precip-Accum3h_Sfc_LatLon0.15_PT081H.grib2 2026-05-07 04:24 3.5M
20260507T00Z_MSC_GDPS_Precip-Accum_Sfc_LatLon0.15_PT081H.grib2 2026-05-07 04:24 4.9M
20260507T00Z_MSC_GDPS_PrecipRate_Sfc_LatLon0.15_PT081H.grib2 2026-05-07 04:24 3.0M
20260507T00Z_MSC_GDPS_PrecipType-Instant_Sfc_LatLon0.15_PT081H.grib2 2026-05-07 04:24 1.6M
20260507T00Z_MSC_GDPS_Pressure_MSL_LatLon0.15_PT081H.grib2 2026-05-07 04:24 829K
20260507T00Z_MSC_GDPS_Pressure_PVU-1.5_LatLon0.15_PT081H.grib2 2026-05-07 04:24 5.8M
20260507T00Z_MSC_GDPS_Pressure_PVU-1_LatLon0.15_PT081H.grib2 2026-05-07 04:24 6.0M
20260507T00Z_MSC_GDPS_Pressure_PVU-2_LatLon0.15_PT081H.grib2 2026-05-07 04:24 5.6M
20260507T00Z_MSC_GDPS_Pressure_Sfc_LatLon0.15_PT081H.grib2 2026-05-07 04:24 1.1M
20260507T00Z_MSC_GDPS_RadiativeTemp_Sfc_LatLon0.15_PT081H.grib2 2026-05-07 04:24 493K
20260507T00Z_MSC_GDPS_Rain-Accum1h_Sfc_LatLon0.15_PT081H.grib2 2026-05-07 04:24 1.6M
20260507T00Z_MSC_GDPS_Rain-Accum3h_Sfc_LatLon0.15_PT081H.grib2 2026-05-07 04:24 1.8M
20260507T00Z_MSC_GDPS_Rain-Accum_Sfc_LatLon0.15_PT081H.grib2 2026-05-07 04:24 3.8M
20260507T00Z_MSC_GDPS_RelativeHumidity_AGL-2m_LatLon0.15_PT081H.grib2 2026-05-07 04:24 1.1M
20260507T00Z_MSC_GDPS_RelativeHumidity_IsbL-0010_LatLon0.15_PT081H.grib2 2026-05-07 04:24 158K
20260507T00Z_MSC_GDPS_RelativeHumidity_IsbL-0020_LatLon0.15_PT081H.grib2 2026-05-07 04:24 175K
20260507T00Z_MSC_GDPS_RelativeHumidity_IsbL-0030_LatLon0.15_PT081H.grib2 2026-05-07 04:24 195K
20260507T00Z_MSC_GDPS_RelativeHumidity_IsbL-0050_LatLon0.15_PT081H.grib2 2026-05-07 04:24 342K
20260507T00Z_MSC_GDPS_RelativeHumidity_IsbL-0100_LatLon0.15_PT081H.grib2 2026-05-07 04:24 504K
20260507T00Z_MSC_GDPS_RelativeHumidity_IsbL-0150_LatLon0.15_PT081H.grib2 2026-05-07 04:24 687K
20260507T00Z_MSC_GDPS_RelativeHumidity_IsbL-0175_LatLon0.15_PT081H.grib2 2026-05-07 04:24 808K
20260507T00Z_MSC_GDPS_RelativeHumidity_IsbL-0200_LatLon0.15_PT081H.grib2 2026-05-07 04:24 716K
20260507T00Z_MSC_GDPS_RelativeHumidity_IsbL-0225_LatLon0.15_PT081H.grib2 2026-05-07 04:24 800K
20260507T00Z_MSC_GDPS_RelativeHumidity_IsbL-0250_LatLon0.15_PT081H.grib2 2026-05-07 04:24 871K
20260507T00Z_MSC_GDPS_RelativeHumidity_IsbL-0275_LatLon0.15_PT081H.grib2 2026-05-07 04:24 889K
20260507T00Z_MSC_GDPS_RelativeHumidity_IsbL-0300_LatLon0.15_PT081H.grib2 2026-05-07 04:24 925K
20260507T00Z_MSC_GDPS_RelativeHumidity_IsbL-0350_LatLon0.15_PT081H.grib2 2026-05-07 04:24 943K
20260507T00Z_MSC_GDPS_RelativeHumidity_IsbL-0400_LatLon0.15_PT081H.grib2 2026-05-07 04:24 964K
20260507T00Z_MSC_GDPS_RelativeHumidity_IsbL-0450_LatLon0.15_PT081H.grib2 2026-05-07 04:24 1.0M
20260507T00Z_MSC_GDPS_RelativeHumidity_IsbL-0500_LatLon0.15_PT081H.grib2 2026-05-07 04:24 1.0M
20260507T00Z_MSC_GDPS_RelativeHumidity_IsbL-0550_LatLon0.15_PT081H.grib2 2026-05-07 04:24 1.1M
20260507T00Z_MSC_GDPS_RelativeHumidity_IsbL-0600_LatLon0.15_PT081H.grib2 2026-05-07 04:24 1.1M
20260507T00Z_MSC_GDPS_RelativeHumidity_IsbL-0650_LatLon0.15_PT081H.grib2 2026-05-07 04:24 1.0M
20260507T00Z_MSC_GDPS_RelativeHumidity_IsbL-0700_LatLon0.15_PT081H.grib2 2026-05-07 04:24 1.1M
20260507T00Z_MSC_GDPS_RelativeHumidity_IsbL-0750_LatLon0.15_PT081H.grib2 2026-05-07 04:24 1.2M
20260507T00Z_MSC_GDPS_RelativeHumidity_IsbL-0800_LatLon0.15_PT081H.grib2 2026-05-07 04:24 1.2M
20260507T00Z_MSC_GDPS_RelativeHumidity_IsbL-0850_LatLon0.15_PT081H.grib2 2026-05-07 04:24 1.3M
20260507T00Z_MSC_GDPS_RelativeHumidity_IsbL-0875_LatLon0.15_PT081H.grib2 2026-05-07 04:24 1.2M
20260507T00Z_MSC_GDPS_RelativeHumidity_IsbL-0900_LatLon0.15_PT081H.grib2 2026-05-07 04:24 1.2M
20260507T00Z_MSC_GDPS_RelativeHumidity_IsbL-0925_LatLon0.15_PT081H.grib2 2026-05-07 04:24 1.2M
20260507T00Z_MSC_GDPS_RelativeHumidity_IsbL-0950_LatLon0.15_PT081H.grib2 2026-05-07 04:24 1.2M
20260507T00Z_MSC_GDPS_RelativeHumidity_IsbL-0970_LatLon0.15_PT081H.grib2 2026-05-07 04:24 1.1M
20260507T00Z_MSC_GDPS_RelativeHumidity_IsbL-0985_LatLon0.15_PT081H.grib2 2026-05-07 04:24 1.1M
20260507T00Z_MSC_GDPS_RelativeHumidity_IsbL-1000_LatLon0.15_PT081H.grib2 2026-05-07 04:24 1.1M
20260507T00Z_MSC_GDPS_RelativeHumidity_IsbL-1015_LatLon0.15_PT081H.grib2 2026-05-07 04:24 1.0M
20260507T00Z_MSC_GDPS_RelativeVorticity_IsbL-0200_LatLon0.15_PT081H.grib2 2026-05-07 04:24 1.5M
20260507T00Z_MSC_GDPS_RelativeVorticity_IsbL-0250_LatLon0.15_PT081H.grib2 2026-05-07 04:24 1.3M
20260507T00Z_MSC_GDPS_RelativeVorticity_IsbL-0500_LatLon0.15_PT081H.grib2 2026-05-07 04:24 1.2M
20260507T00Z_MSC_GDPS_RelativeVorticity_IsbL-0700_LatLon0.15_PT081H.grib2 2026-05-07 04:24 1.3M
20260507T00Z_MSC_GDPS_RelativeVorticity_IsbL-0850_LatLon0.15_PT081H.grib2 2026-05-07 04:24 1.6M
20260507T00Z_MSC_GDPS_Runoff-Accum_Sfc_LatLon0.15_PT081H.grib2 2026-05-07 04:24 118K
20260507T00Z_MSC_GDPS_SensibleHeatNetFlux_Sfc_LatLon0.15_PT081H.grib2 2026-05-07 04:24 499K
20260507T00Z_MSC_GDPS_ShowalterIndex_IsbL-0500_LatLon0.15_PT081H.grib2 2026-05-07 04:24 6.2M
20260507T00Z_MSC_GDPS_Snow-Accum1h_Sfc_LatLon0.15_PT081H.grib2 2026-05-07 04:24 1.1M
20260507T00Z_MSC_GDPS_Snow-Accum3h_Sfc_LatLon0.15_PT081H.grib2 2026-05-07 04:24 1.1M
20260507T00Z_MSC_GDPS_Snow-Accum_Sfc_LatLon0.15_PT081H.grib2 2026-05-07 04:24 2.0M
20260507T00Z_MSC_GDPS_SnowDensity_Sfc_LatLon0.15_PT081H.grib2 2026-05-07 04:24 257K
20260507T00Z_MSC_GDPS_SnowDepth_Sfc_LatLon0.15_PT081H.grib2 2026-05-07 04:24 1.7M
20260507T00Z_MSC_GDPS_SoilTemp_DBS-0to10cm_LatLon0.15_PT081H.grib2 2026-05-07 04:24 508K
20260507T00Z_MSC_GDPS_SoilTemp_Sfc_LatLon0.15_PT081H.grib2 2026-05-07 04:24 592K
20260507T00Z_MSC_GDPS_SoilVolumetricIceContent_Sfc_LatLon0.15_PT081H.grib2 2026-05-07 04:24 178K
20260507T00Z_MSC_GDPS_SoilVolumetricWaterContent_DBS-0to10cm_LatLon0.15_PT081H.grib2 2026-05-07 04:24 600K
20260507T00Z_MSC_GDPS_SoilVolumetricWaterContent_DBS-0to1cm_LatLon0.15_PT081H.grib2 2026-05-07 04:24 648K
20260507T00Z_MSC_GDPS_SpecificHumidity_AGL-120m_LatLon0.15_PT081H.grib2 2026-05-07 04:24 1.1M
20260507T00Z_MSC_GDPS_SpecificHumidity_AGL-2m_LatLon0.15_PT081H.grib2 2026-05-07 04:24 1.2M
20260507T00Z_MSC_GDPS_SpecificHumidity_AGL-40m_LatLon0.15_PT081H.grib2 2026-05-07 04:24 1.1M
20260507T00Z_MSC_GDPS_SpecificHumidity_AGL-80m_LatLon0.15_PT081H.grib2 2026-05-07 04:24 1.1M
20260507T00Z_MSC_GDPS_SpecificHumidity_IsbL-0001_LatLon0.15_PT081H.grib2 2026-05-07 04:24 1.3M
20260507T00Z_MSC_GDPS_SpecificHumidity_IsbL-0005_LatLon0.15_PT081H.grib2 2026-05-07 04:24 1.2M
20260507T00Z_MSC_GDPS_SpecificHumidity_IsbL-0010_LatLon0.15_PT081H.grib2 2026-05-07 04:24 1.3M
20260507T00Z_MSC_GDPS_SpecificHumidity_IsbL-0020_LatLon0.15_PT081H.grib2 2026-05-07 04:24 1.3M
20260507T00Z_MSC_GDPS_SpecificHumidity_IsbL-0030_LatLon0.15_PT081H.grib2 2026-05-07 04:24 1.3M
20260507T00Z_MSC_GDPS_SpecificHumidity_IsbL-0050_LatLon0.15_PT081H.grib2 2026-05-07 04:24 1.6M
20260507T00Z_MSC_GDPS_SpecificHumidity_IsbL-0100_LatLon0.15_PT081H.grib2 2026-05-07 04:24 1.3M
20260507T00Z_MSC_GDPS_SpecificHumidity_IsbL-0150_LatLon0.15_PT081H.grib2 2026-05-07 04:24 1.3M
20260507T00Z_MSC_GDPS_SpecificHumidity_IsbL-0175_LatLon0.15_PT081H.grib2 2026-05-07 04:24 1.3M
20260507T00Z_MSC_GDPS_SpecificHumidity_IsbL-0200_LatLon0.15_PT081H.grib2 2026-05-07 04:24 1.3M
20260507T00Z_MSC_GDPS_SpecificHumidity_IsbL-0225_LatLon0.15_PT081H.grib2 2026-05-07 04:24 1.3M
20260507T00Z_MSC_GDPS_SpecificHumidity_IsbL-0250_LatLon0.15_PT081H.grib2 2026-05-07 04:24 1.2M
20260507T00Z_MSC_GDPS_SpecificHumidity_IsbL-0275_LatLon0.15_PT081H.grib2 2026-05-07 04:24 1.4M
20260507T00Z_MSC_GDPS_SpecificHumidity_IsbL-0300_LatLon0.15_PT081H.grib2 2026-05-07 04:24 1.3M
20260507T00Z_MSC_GDPS_SpecificHumidity_IsbL-0350_LatLon0.15_PT081H.grib2 2026-05-07 04:24 1.3M
20260507T00Z_MSC_GDPS_SpecificHumidity_IsbL-0400_LatLon0.15_PT081H.grib2 2026-05-07 04:24 1.4M
20260507T00Z_MSC_GDPS_SpecificHumidity_IsbL-0450_LatLon0.15_PT081H.grib2 2026-05-07 04:24 1.3M
20260507T00Z_MSC_GDPS_SpecificHumidity_IsbL-0500_LatLon0.15_PT081H.grib2 2026-05-07 04:24 1.5M
20260507T00Z_MSC_GDPS_SpecificHumidity_IsbL-0550_LatLon0.15_PT081H.grib2 2026-05-07 04:24 1.6M
20260507T00Z_MSC_GDPS_SpecificHumidity_IsbL-0600_LatLon0.15_PT081H.grib2 2026-05-07 04:24 1.4M
20260507T00Z_MSC_GDPS_SpecificHumidity_IsbL-0650_LatLon0.15_PT081H.grib2 2026-05-07 04:24 1.5M
20260507T00Z_MSC_GDPS_SpecificHumidity_IsbL-0700_LatLon0.15_PT081H.grib2 2026-05-07 04:24 1.6M
20260507T00Z_MSC_GDPS_SpecificHumidity_IsbL-0750_LatLon0.15_PT081H.grib2 2026-05-07 04:24 1.7M
20260507T00Z_MSC_GDPS_SpecificHumidity_IsbL-0800_LatLon0.15_PT081H.grib2 2026-05-07 04:24 1.9M
20260507T00Z_MSC_GDPS_SpecificHumidity_IsbL-0850_LatLon0.15_PT081H.grib2 2026-05-07 04:24 2.0M
20260507T00Z_MSC_GDPS_SpecificHumidity_IsbL-0875_LatLon0.15_PT081H.grib2 2026-05-07 04:24 2.0M
20260507T00Z_MSC_GDPS_SpecificHumidity_IsbL-0900_LatLon0.15_PT081H.grib2 2026-05-07 04:24 1.9M
20260507T00Z_MSC_GDPS_SpecificHumidity_IsbL-0925_LatLon0.15_PT081H.grib2 2026-05-07 04:24 1.6M
20260507T00Z_MSC_GDPS_SpecificHumidity_IsbL-0950_LatLon0.15_PT081H.grib2 2026-05-07 04:24 1.6M
20260507T00Z_MSC_GDPS_SpecificHumidity_IsbL-0970_LatLon0.15_PT081H.grib2 2026-05-07 04:24 1.5M
20260507T00Z_MSC_GDPS_SpecificHumidity_IsbL-0985_LatLon0.15_PT081H.grib2 2026-05-07 04:24 1.5M
20260507T00Z_MSC_GDPS_SpecificHumidity_IsbL-1000_LatLon0.15_PT081H.grib2 2026-05-07 04:24 1.5M
20260507T00Z_MSC_GDPS_SpecificHumidity_IsbL-1015_LatLon0.15_PT081H.grib2 2026-05-07 04:24 1.5M
20260507T00Z_MSC_GDPS_SpecificHumidity_Sfc_LatLon0.15_PT081H.grib2 2026-05-07 04:24 682K
20260507T00Z_MSC_GDPS_Thickness_IsbL-0850to0700_LatLon0.15_PT081H.grib2 2026-05-07 04:24 477K
20260507T00Z_MSC_GDPS_Thickness_IsbL-1000to0500_LatLon0.15_PT081H.grib2 2026-05-07 04:24 380K
20260507T00Z_MSC_GDPS_Thickness_IsbL-1000to0850_LatLon0.15_PT081H.grib2 2026-05-07 04:24 495K
20260507T00Z_MSC_GDPS_TotalCloudCover_Sfc_LatLon0.15_PT081H.grib2 2026-05-07 04:24 824K
20260507T00Z_MSC_GDPS_TotalTotalsIndex_Sfc_LatLon0.15_PT081H.grib2 2026-05-07 04:24 6.2M
20260507T00Z_MSC_GDPS_UVIndex-ClearSky_Sfc_LatLon0.15_PT081H.grib2 2026-05-07 04:55 1.1M
20260507T00Z_MSC_GDPS_UVIndex_Sfc_LatLon0.15_PT081H.grib2 2026-05-07 04:55 1.5M
20260507T00Z_MSC_GDPS_UpwardLongwaveRadiationFlux_NTAtm_LatLon0.15_PT081H.grib2 2026-05-07 04:24 840K
20260507T00Z_MSC_GDPS_VerticalVelocity_IsbL-0200_LatLon0.15_PT081H.grib2 2026-05-07 04:24 948K
20260507T00Z_MSC_GDPS_VerticalVelocity_IsbL-0250_LatLon0.15_PT081H.grib2 2026-05-07 04:24 1.1M
20260507T00Z_MSC_GDPS_VerticalVelocity_IsbL-0500_LatLon0.15_PT081H.grib2 2026-05-07 04:24 1.3M
20260507T00Z_MSC_GDPS_VerticalVelocity_IsbL-0600_LatLon0.15_PT081H.grib2 2026-05-07 04:24 1.1M
20260507T00Z_MSC_GDPS_VerticalVelocity_IsbL-0700_LatLon0.15_PT081H.grib2 2026-05-07 04:24 1.2M
20260507T00Z_MSC_GDPS_VerticalVelocity_IsbL-0850_LatLon0.15_PT081H.grib2 2026-05-07 04:24 1.4M
20260507T00Z_MSC_GDPS_WindChill_Sfc_LatLon0.15_PT081H.grib2 2026-05-07 04:24 5.3M
20260507T00Z_MSC_GDPS_WindDir_AGL-10m_LatLon0.15_PT081H.grib2 2026-05-07 04:24 1.3M
20260507T00Z_MSC_GDPS_WindDir_AGL-120m_LatLon0.15_PT081H.grib2 2026-05-07 04:24 1.3M
20260507T00Z_MSC_GDPS_WindDir_AGL-40m_LatLon0.15_PT081H.grib2 2026-05-07 04:24 1.3M
20260507T00Z_MSC_GDPS_WindDir_AGL-80m_LatLon0.15_PT081H.grib2 2026-05-07 04:24 1.3M
20260507T00Z_MSC_GDPS_WindDir_IsbL-0001_LatLon0.15_PT081H.grib2 2026-05-07 04:24 663K
20260507T00Z_MSC_GDPS_WindDir_IsbL-0005_LatLon0.15_PT081H.grib2 2026-05-07 04:24 821K
20260507T00Z_MSC_GDPS_WindDir_IsbL-0010_LatLon0.15_PT081H.grib2 2026-05-07 04:24 848K
20260507T00Z_MSC_GDPS_WindDir_IsbL-0020_LatLon0.15_PT081H.grib2 2026-05-07 04:24 952K
20260507T00Z_MSC_GDPS_WindDir_IsbL-0030_LatLon0.15_PT081H.grib2 2026-05-07 04:24 962K
20260507T00Z_MSC_GDPS_WindDir_IsbL-0050_LatLon0.15_PT081H.grib2 2026-05-07 04:24 948K
20260507T00Z_MSC_GDPS_WindDir_IsbL-0100_LatLon0.15_PT081H.grib2 2026-05-07 04:24 1.0M
20260507T00Z_MSC_GDPS_WindDir_IsbL-0150_LatLon0.15_PT081H.grib2 2026-05-07 04:24 1.0M
20260507T00Z_MSC_GDPS_WindDir_IsbL-0175_LatLon0.15_PT081H.grib2 2026-05-07 04:24 1.1M
20260507T00Z_MSC_GDPS_WindDir_IsbL-0200_LatLon0.15_PT081H.grib2 2026-05-07 04:24 1.1M
20260507T00Z_MSC_GDPS_WindDir_IsbL-0225_LatLon0.15_PT081H.grib2 2026-05-07 04:24 1.1M
20260507T00Z_MSC_GDPS_WindDir_IsbL-0250_LatLon0.15_PT081H.grib2 2026-05-07 04:24 1.1M
20260507T00Z_MSC_GDPS_WindDir_IsbL-0275_LatLon0.15_PT081H.grib2 2026-05-07 04:24 1.2M
20260507T00Z_MSC_GDPS_WindDir_IsbL-0300_LatLon0.15_PT081H.grib2 2026-05-07 04:24 1.2M
20260507T00Z_MSC_GDPS_WindDir_IsbL-0350_LatLon0.15_PT081H.grib2 2026-05-07 04:24 1.2M
20260507T00Z_MSC_GDPS_WindDir_IsbL-0400_LatLon0.15_PT081H.grib2 2026-05-07 04:24 1.3M
20260507T00Z_MSC_GDPS_WindDir_IsbL-0450_LatLon0.15_PT081H.grib2 2026-05-07 04:24 1.3M
20260507T00Z_MSC_GDPS_WindDir_IsbL-0500_LatLon0.15_PT081H.grib2 2026-05-07 04:24 1.4M
20260507T00Z_MSC_GDPS_WindDir_IsbL-0550_LatLon0.15_PT081H.grib2 2026-05-07 04:24 1.4M
20260507T00Z_MSC_GDPS_WindDir_IsbL-0600_LatLon0.15_PT081H.grib2 2026-05-07 04:24 1.4M
20260507T00Z_MSC_GDPS_WindDir_IsbL-0650_LatLon0.15_PT081H.grib2 2026-05-07 04:24 1.5M
20260507T00Z_MSC_GDPS_WindDir_IsbL-0700_LatLon0.15_PT081H.grib2 2026-05-07 04:24 1.6M
20260507T00Z_MSC_GDPS_WindDir_IsbL-0750_LatLon0.15_PT081H.grib2 2026-05-07 04:24 1.6M
20260507T00Z_MSC_GDPS_WindDir_IsbL-0800_LatLon0.15_PT081H.grib2 2026-05-07 04:24 1.8M
20260507T00Z_MSC_GDPS_WindDir_IsbL-0850_LatLon0.15_PT081H.grib2 2026-05-07 04:24 1.9M
20260507T00Z_MSC_GDPS_WindDir_IsbL-0875_LatLon0.15_PT081H.grib2 2026-05-07 04:24 1.9M
20260507T00Z_MSC_GDPS_WindDir_IsbL-0900_LatLon0.15_PT081H.grib2 2026-05-07 04:24 1.9M
20260507T00Z_MSC_GDPS_WindDir_IsbL-0925_LatLon0.15_PT081H.grib2 2026-05-07 04:24 1.9M
20260507T00Z_MSC_GDPS_WindDir_IsbL-0950_LatLon0.15_PT081H.grib2 2026-05-07 04:24 1.9M
20260507T00Z_MSC_GDPS_WindDir_IsbL-0970_LatLon0.15_PT081H.grib2 2026-05-07 04:24 1.9M
20260507T00Z_MSC_GDPS_WindDir_IsbL-0985_LatLon0.15_PT081H.grib2 2026-05-07 04:24 2.0M
20260507T00Z_MSC_GDPS_WindDir_IsbL-1000_LatLon0.15_PT081H.grib2 2026-05-07 04:24 2.0M
20260507T00Z_MSC_GDPS_WindDir_IsbL-1015_LatLon0.15_PT081H.grib2 2026-05-07 04:24 2.0M
20260507T00Z_MSC_GDPS_WindGust-Max_AGL-10m_LatLon0.15_PT081H.grib2 2026-05-07 04:24 1.8M
20260507T00Z_MSC_GDPS_WindGust-Min_AGL-10m_LatLon0.15_PT081H.grib2 2026-05-07 04:24 2.1M
20260507T00Z_MSC_GDPS_WindGust_AGL-10m_LatLon0.15_PT081H.grib2 2026-05-07 04:24 2.1M
20260507T00Z_MSC_GDPS_WindSpeed_AGL-10m_LatLon0.15_PT081H.grib2 2026-05-07 04:24 1.1M
20260507T00Z_MSC_GDPS_WindSpeed_AGL-120m_LatLon0.15_PT081H.grib2 2026-05-07 04:24 1.2M
20260507T00Z_MSC_GDPS_WindSpeed_AGL-40m_LatLon0.15_PT081H.grib2 2026-05-07 04:24 1.2M
20260507T00Z_MSC_GDPS_WindSpeed_AGL-80m_LatLon0.15_PT081H.grib2 2026-05-07 04:24 1.2M
20260507T00Z_MSC_GDPS_WindSpeed_IsbL-0001_LatLon0.15_PT081H.grib2 2026-05-07 04:24 655K
20260507T00Z_MSC_GDPS_WindSpeed_IsbL-0005_LatLon0.15_PT081H.grib2 2026-05-07 04:24 697K
20260507T00Z_MSC_GDPS_WindSpeed_IsbL-0010_LatLon0.15_PT081H.grib2 2026-05-07 04:24 631K
20260507T00Z_MSC_GDPS_WindSpeed_IsbL-0020_LatLon0.15_PT081H.grib2 2026-05-07 04:24 671K
20260507T00Z_MSC_GDPS_WindSpeed_IsbL-0030_LatLon0.15_PT081H.grib2 2026-05-07 04:24 679K
20260507T00Z_MSC_GDPS_WindSpeed_IsbL-0050_LatLon0.15_PT081H.grib2 2026-05-07 04:24 905K
20260507T00Z_MSC_GDPS_WindSpeed_IsbL-0100_LatLon0.15_PT081H.grib2 2026-05-07 04:24 869K
20260507T00Z_MSC_GDPS_WindSpeed_IsbL-0150_LatLon0.15_PT081H.grib2 2026-05-07 04:24 946K
20260507T00Z_MSC_GDPS_WindSpeed_IsbL-0175_LatLon0.15_PT081H.grib2 2026-05-07 04:24 1.0M
20260507T00Z_MSC_GDPS_WindSpeed_IsbL-0200_LatLon0.15_PT081H.grib2 2026-05-07 04:24 1.1M
20260507T00Z_MSC_GDPS_WindSpeed_IsbL-0225_LatLon0.15_PT081H.grib2 2026-05-07 04:24 1.1M
20260507T00Z_MSC_GDPS_WindSpeed_IsbL-0250_LatLon0.15_PT081H.grib2 2026-05-07 04:24 1.1M
20260507T00Z_MSC_GDPS_WindSpeed_IsbL-0275_LatLon0.15_PT081H.grib2 2026-05-07 04:24 1.1M
20260507T00Z_MSC_GDPS_WindSpeed_IsbL-0300_LatLon0.15_PT081H.grib2 2026-05-07 04:24 1.1M
20260507T00Z_MSC_GDPS_WindSpeed_IsbL-0350_LatLon0.15_PT081H.grib2 2026-05-07 04:24 1.1M
20260507T00Z_MSC_GDPS_WindSpeed_IsbL-0400_LatLon0.15_PT081H.grib2 2026-05-07 04:24 1.1M
20260507T00Z_MSC_GDPS_WindSpeed_IsbL-0450_LatLon0.15_PT081H.grib2 2026-05-07 04:24 1.1M
20260507T00Z_MSC_GDPS_WindSpeed_IsbL-0500_LatLon0.15_PT081H.grib2 2026-05-07 04:24 1.1M
20260507T00Z_MSC_GDPS_WindSpeed_IsbL-0550_LatLon0.15_PT081H.grib2 2026-05-07 04:24 1.1M
20260507T00Z_MSC_GDPS_WindSpeed_IsbL-0600_LatLon0.15_PT081H.grib2 2026-05-07 04:24 1.4M
20260507T00Z_MSC_GDPS_WindSpeed_IsbL-0650_LatLon0.15_PT081H.grib2 2026-05-07 04:24 1.4M
20260507T00Z_MSC_GDPS_WindSpeed_IsbL-0700_LatLon0.15_PT081H.grib2 2026-05-07 04:24 1.5M
20260507T00Z_MSC_GDPS_WindSpeed_IsbL-0750_LatLon0.15_PT081H.grib2 2026-05-07 04:24 1.6M
20260507T00Z_MSC_GDPS_WindSpeed_IsbL-0800_LatLon0.15_PT081H.grib2 2026-05-07 04:24 1.6M
20260507T00Z_MSC_GDPS_WindSpeed_IsbL-0850_LatLon0.15_PT081H.grib2 2026-05-07 04:24 1.4M
20260507T00Z_MSC_GDPS_WindSpeed_IsbL-0875_LatLon0.15_PT081H.grib2 2026-05-07 04:24 1.5M
20260507T00Z_MSC_GDPS_WindSpeed_IsbL-0900_LatLon0.15_PT081H.grib2 2026-05-07 04:24 1.8M
20260507T00Z_MSC_GDPS_WindSpeed_IsbL-0925_LatLon0.15_PT081H.grib2 2026-05-07 04:24 1.8M
20260507T00Z_MSC_GDPS_WindSpeed_IsbL-0950_LatLon0.15_PT081H.grib2 2026-05-07 04:24 1.8M
20260507T00Z_MSC_GDPS_WindSpeed_IsbL-0970_LatLon0.15_PT081H.grib2 2026-05-07 04:24 1.9M
20260507T00Z_MSC_GDPS_WindSpeed_IsbL-0985_LatLon0.15_PT081H.grib2 2026-05-07 04:24 1.9M
20260507T00Z_MSC_GDPS_WindSpeed_IsbL-1000_LatLon0.15_PT081H.grib2 2026-05-07 04:24 1.8M
20260507T00Z_MSC_GDPS_WindSpeed_IsbL-1015_LatLon0.15_PT081H.grib2 2026-05-07 04:24 1.8M
20260507T00Z_MSC_GDPS_WindU_AGL-10m_LatLon0.15_PT081H.grib2 2026-05-07 04:24 1.3M
20260507T00Z_MSC_GDPS_WindU_AGL-120m_LatLon0.15_PT081H.grib2 2026-05-07 04:24 1.0M
20260507T00Z_MSC_GDPS_WindU_AGL-40m_LatLon0.15_PT081H.grib2 2026-05-07 04:24 956K
20260507T00Z_MSC_GDPS_WindU_AGL-80m_LatLon0.15_PT081H.grib2 2026-05-07 04:24 959K
20260507T00Z_MSC_GDPS_WindU_IsbL-0001_LatLon0.15_PT081H.grib2 2026-05-07 04:24 506K
20260507T00Z_MSC_GDPS_WindU_IsbL-0005_LatLon0.15_PT081H.grib2 2026-05-07 04:24 695K
20260507T00Z_MSC_GDPS_WindU_IsbL-0010_LatLon0.15_PT081H.grib2 2026-05-07 04:24 704K
20260507T00Z_MSC_GDPS_WindU_IsbL-0020_LatLon0.15_PT081H.grib2 2026-05-07 04:24 735K
20260507T00Z_MSC_GDPS_WindU_IsbL-0030_LatLon0.15_PT081H.grib2 2026-05-07 04:24 748K
20260507T00Z_MSC_GDPS_WindU_IsbL-0050_LatLon0.15_PT081H.grib2 2026-05-07 04:24 768K
20260507T00Z_MSC_GDPS_WindU_IsbL-0100_LatLon0.15_PT081H.grib2 2026-05-07 04:24 926K
20260507T00Z_MSC_GDPS_WindU_IsbL-0150_LatLon0.15_PT081H.grib2 2026-05-07 04:24 1.0M
20260507T00Z_MSC_GDPS_WindU_IsbL-0175_LatLon0.15_PT081H.grib2 2026-05-07 04:24 816K
20260507T00Z_MSC_GDPS_WindU_IsbL-0200_LatLon0.15_PT081H.grib2 2026-05-07 04:24 843K
20260507T00Z_MSC_GDPS_WindU_IsbL-0225_LatLon0.15_PT081H.grib2 2026-05-07 04:24 911K
20260507T00Z_MSC_GDPS_WindU_IsbL-0250_LatLon0.15_PT081H.grib2 2026-05-07 04:24 855K
20260507T00Z_MSC_GDPS_WindU_IsbL-0275_LatLon0.15_PT081H.grib2 2026-05-07 04:24 882K
20260507T00Z_MSC_GDPS_WindU_IsbL-0300_LatLon0.15_PT081H.grib2 2026-05-07 04:24 871K
20260507T00Z_MSC_GDPS_WindU_IsbL-0350_LatLon0.15_PT081H.grib2 2026-05-07 04:24 885K
20260507T00Z_MSC_GDPS_WindU_IsbL-0400_LatLon0.15_PT081H.grib2 2026-05-07 04:24 1.1M
20260507T00Z_MSC_GDPS_WindU_IsbL-0450_LatLon0.15_PT081H.grib2 2026-05-07 04:24 1.1M
20260507T00Z_MSC_GDPS_WindU_IsbL-0500_LatLon0.15_PT081H.grib2 2026-05-07 04:24 1.1M
20260507T00Z_MSC_GDPS_WindU_IsbL-0550_LatLon0.15_PT081H.grib2 2026-05-07 04:24 1.1M
20260507T00Z_MSC_GDPS_WindU_IsbL-0600_LatLon0.15_PT081H.grib2 2026-05-07 04:24 1.1M
20260507T00Z_MSC_GDPS_WindU_IsbL-0650_LatLon0.15_PT081H.grib2 2026-05-07 04:24 1.2M
20260507T00Z_MSC_GDPS_WindU_IsbL-0700_LatLon0.15_PT081H.grib2 2026-05-07 04:24 1.2M
20260507T00Z_MSC_GDPS_WindU_IsbL-0750_LatLon0.15_PT081H.grib2 2026-05-07 04:24 1.3M
20260507T00Z_MSC_GDPS_WindU_IsbL-0800_LatLon0.15_PT081H.grib2 2026-05-07 04:24 1.4M
20260507T00Z_MSC_GDPS_WindU_IsbL-0850_LatLon0.15_PT081H.grib2 2026-05-07 04:24 1.4M
20260507T00Z_MSC_GDPS_WindU_IsbL-0875_LatLon0.15_PT081H.grib2 2026-05-07 04:24 1.4M
20260507T00Z_MSC_GDPS_WindU_IsbL-0900_LatLon0.15_PT081H.grib2 2026-05-07 04:24 1.4M
20260507T00Z_MSC_GDPS_WindU_IsbL-0925_LatLon0.15_PT081H.grib2 2026-05-07 04:24 1.4M
20260507T00Z_MSC_GDPS_WindU_IsbL-0950_LatLon0.15_PT081H.grib2 2026-05-07 04:24 1.4M
20260507T00Z_MSC_GDPS_WindU_IsbL-0970_LatLon0.15_PT081H.grib2 2026-05-07 04:24 1.4M
20260507T00Z_MSC_GDPS_WindU_IsbL-0985_LatLon0.15_PT081H.grib2 2026-05-07 04:24 1.4M
20260507T00Z_MSC_GDPS_WindU_IsbL-1000_LatLon0.15_PT081H.grib2 2026-05-07 04:24 1.4M
20260507T00Z_MSC_GDPS_WindU_IsbL-1015_LatLon0.15_PT081H.grib2 2026-05-07 04:24 1.3M
20260507T00Z_MSC_GDPS_WindV_AGL-10m_LatLon0.15_PT081H.grib2 2026-05-07 04:24 1.5M
20260507T00Z_MSC_GDPS_WindV_AGL-120m_LatLon0.15_PT081H.grib2 2026-05-07 04:24 960K
20260507T00Z_MSC_GDPS_WindV_AGL-40m_LatLon0.15_PT081H.grib2 2026-05-07 04:24 956K
20260507T00Z_MSC_GDPS_WindV_AGL-80m_LatLon0.15_PT081H.grib2 2026-05-07 04:24 961K
20260507T00Z_MSC_GDPS_WindV_IsbL-0001_LatLon0.15_PT081H.grib2 2026-05-07 04:24 790K
20260507T00Z_MSC_GDPS_WindV_IsbL-0005_LatLon0.15_PT081H.grib2 2026-05-07 04:24 861K
20260507T00Z_MSC_GDPS_WindV_IsbL-0010_LatLon0.15_PT081H.grib2 2026-05-07 04:24 885K
20260507T00Z_MSC_GDPS_WindV_IsbL-0020_LatLon0.15_PT081H.grib2 2026-05-07 04:24 937K
20260507T00Z_MSC_GDPS_WindV_IsbL-0030_LatLon0.15_PT081H.grib2 2026-05-07 04:24 944K
20260507T00Z_MSC_GDPS_WindV_IsbL-0050_LatLon0.15_PT081H.grib2 2026-05-07 04:24 904K
20260507T00Z_MSC_GDPS_WindV_IsbL-0100_LatLon0.15_PT081H.grib2 2026-05-07 04:24 858K
20260507T00Z_MSC_GDPS_WindV_IsbL-0150_LatLon0.15_PT081H.grib2 2026-05-07 04:24 1.0M
20260507T00Z_MSC_GDPS_WindV_IsbL-0175_LatLon0.15_PT081H.grib2 2026-05-07 04:24 814K
20260507T00Z_MSC_GDPS_WindV_IsbL-0200_LatLon0.15_PT081H.grib2 2026-05-07 04:24 898K
20260507T00Z_MSC_GDPS_WindV_IsbL-0225_LatLon0.15_PT081H.grib2 2026-05-07 04:24 906K
20260507T00Z_MSC_GDPS_WindV_IsbL-0250_LatLon0.15_PT081H.grib2 2026-05-07 04:24 909K
20260507T00Z_MSC_GDPS_WindV_IsbL-0275_LatLon0.15_PT081H.grib2 2026-05-07 04:24 933K
20260507T00Z_MSC_GDPS_WindV_IsbL-0300_LatLon0.15_PT081H.grib2 2026-05-07 04:24 923K
20260507T00Z_MSC_GDPS_WindV_IsbL-0350_LatLon0.15_PT081H.grib2 2026-05-07 04:24 935K
20260507T00Z_MSC_GDPS_WindV_IsbL-0400_LatLon0.15_PT081H.grib2 2026-05-07 04:24 880K
20260507T00Z_MSC_GDPS_WindV_IsbL-0450_LatLon0.15_PT081H.grib2 2026-05-07 04:24 884K
20260507T00Z_MSC_GDPS_WindV_IsbL-0500_LatLon0.15_PT081H.grib2 2026-05-07 04:24 1.1M
20260507T00Z_MSC_GDPS_WindV_IsbL-0550_LatLon0.15_PT081H.grib2 2026-05-07 04:24 1.1M
20260507T00Z_MSC_GDPS_WindV_IsbL-0600_LatLon0.15_PT081H.grib2 2026-05-07 04:24 1.1M
20260507T00Z_MSC_GDPS_WindV_IsbL-0650_LatLon0.15_PT081H.grib2 2026-05-07 04:24 1.2M
20260507T00Z_MSC_GDPS_WindV_IsbL-0700_LatLon0.15_PT081H.grib2 2026-05-07 04:24 1.2M
20260507T00Z_MSC_GDPS_WindV_IsbL-0750_LatLon0.15_PT081H.grib2 2026-05-07 04:24 1.3M
20260507T00Z_MSC_GDPS_WindV_IsbL-0800_LatLon0.15_PT081H.grib2 2026-05-07 04:24 1.3M
20260507T00Z_MSC_GDPS_WindV_IsbL-0850_LatLon0.15_PT081H.grib2 2026-05-07 04:24 1.4M
20260507T00Z_MSC_GDPS_WindV_IsbL-0875_LatLon0.15_PT081H.grib2 2026-05-07 04:24 1.4M
20260507T00Z_MSC_GDPS_WindV_IsbL-0900_LatLon0.15_PT081H.grib2 2026-05-07 04:24 1.4M
20260507T00Z_MSC_GDPS_WindV_IsbL-0925_LatLon0.15_PT081H.grib2 2026-05-07 04:24 1.4M
20260507T00Z_MSC_GDPS_WindV_IsbL-0950_LatLon0.15_PT081H.grib2 2026-05-07 04:24 1.4M
20260507T00Z_MSC_GDPS_WindV_IsbL-0970_LatLon0.15_PT081H.grib2 2026-05-07 04:24 1.4M
20260507T00Z_MSC_GDPS_WindV_IsbL-0985_LatLon0.15_PT081H.grib2 2026-05-07 04:24 1.4M
20260507T00Z_MSC_GDPS_WindV_IsbL-1000_LatLon0.15_PT081H.grib2 2026-05-07 04:24 1.4M
20260507T00Z_MSC_GDPS_WindV_IsbL-1015_LatLon0.15_PT081H.grib2 2026-05-07 04:24 1.3M